Regional Weather Roundup
Issued by NWS Grand Forks, ND

Home | Current Version | Previous Version | Graphics & Text | Print | Product List | Glossary On
Versions: 1 2 3 4 5 6 7 8 9 10 11 12 13 14 15 16 17 18 19 20 21 22 23 24 25 26 27 28 29 30 31 32 33 34 35 36 37 38 39 40 41 42 43 44 45 46 47 48 49 50
000
ASUS43 KFGF 211231
RWRFGF
PRAIRIE TO PINES  WEATHER ROUNDUP
NATIONAL WEATHER SERVICE EASTERN NORTH DAKOTA/GRAND FORKS ND
700 AM CDT SAT APR 21 2018

 **SATELLITE DATA USED TO AUGMENT SKY COVER AT AUTOMATED STATIONS**
 *****  WEATHER ACROSS EASTERN NORTH DAKOTA  *****

CITY           SKY/WX    TMP DP  RH WIND       PRES   REMARKS
GRAND FORKS    CLOUDY    34  34 100 S7        30.35R FOG
6HR MIN TEMP:  33; 6HR MAX TEMP:  38;

GRAND FRKS AFB CLOUDY    36  36  99 S8        30.33S
GRAND FRKS NWS   N/A     35  34  95 S5        30.32S
DEVILS LAKE    FAIR      31  30  96 SE3       30.31R
6HR MIN TEMP:  31; 6HR MAX TEMP:  35;

FARGO          FAIR      34  32  92 S8        30.37R
WAHPETON ARPT  FAIR      32  30  93 SE6       30.39R
$$

 ***** WEATHER ACROSS CENTRAL AND WESTERN NORTH DAKOTA  *****

CITY           SKY/WX    TMP DP  RH WIND       PRES   REMARKS
BISMARCK       FAIR      37  35  92 S5        30.27S
6HR MIN TEMP:  34; 6HR MAX TEMP:  42;

MINOT          FAIR      39  35  86 S9        30.20S
6HR MIN TEMP:  39; 6HR MAX TEMP:  48;

JAMESTOWN      CLOUDY    33  32  96 S3        30.32R FOG
6HR MIN TEMP:  33; 6HR MAX TEMP:  39;

MINOT AFB      FAIR      37  34  89 S12       30.19S
GARRISON         N/A     33  32  96 S5        30.22R
WILLISTON      FAIR      38  35  89 S5        30.15S
6HR MIN TEMP:  37; 6HR MAX TEMP:  47;

DICKINSON      CLOUDY    40  37  89 S20       30.16F
6HR MIN TEMP:  36; 6HR MAX TEMP:  40;

HETTINGER      FAIR      37  35  92 SE10      30.22S
6HR MIN TEMP:  37; 6HR MAX TEMP:  40;

$$

 *****  OTHER AIRPORT OBSERVATIONS IN OUR AREA  *****

CITY           SKY/WX    TMP DP  RH WIND       PRES   REMARKS
WALHALLA       FAIR      43  43 100 SW8       30.29S
GRAFTON AIRPOR PTSUNNY   34  34 100 S8        30.35R FOG
VALLEY CITY AR CLOUDY    34  34 100 S6        30.36R FOG
CANDO          FAIR      30  30 100 SE7       30.30S FOG     WCI  23
CAVALIER APRT    N/A     36  36 100 S8        30.30S
GWINNER          N/A     36  36 100 CALM      30.36R
SHEYENNE NWR     N/A     29  29 100 SE2       29.95S
ROLLA          CLOUDY    34  34 100 S7        30.25S
 ***** THE ABOVE OBSERVATIONS ARE NON NWS ARE NOT QUALITY
       CONTROLLED AND MAY MIS-REPORT RAIN FOR SNOW...
$$

  *****  WEATHER ACROSS NORTHERN MINNESOTA  *****

CITY           SKY/WX    TMP DP  RH WIND       PRES   REMARKS
FLAG ISLAND    FAIR      34  28  80 SE6       30.35S
WARROAD        FAIR      36  30  80 S5        30.36S
ROSEAU         FAIR      36  30  80 S8        30.35S
HALLOCK        MOCLDY    36  34  93 S12       30.33S FOG
THF RVR FALLS  FAIR      32  30  92 SE6       30.37R
6HR MIN TEMP:  31; 6HR MAX TEMP:  39;

BAUDETTE       FAIR      30  29  96 CALM      30.37R
6HR MIN TEMP:  28; 6HR MAX TEMP:  34;

WASKISH        FAIR      28  27  93 CALM      30.38S
CROOKSTON      FAIR      34  32  93 S8        30.38R
STEPHEN NDAWN    N/A     36  34  93 S9          N/A
GREENBUSH NDAW   N/A     36  34  93 S7          N/A
$$
  *****  WEATHER ACROSS CENTRAL AND WEST MINNESOTA  *****

CITY           SKY/WX    TMP DP  RH WIND       PRES   REMARKS
FOSSTON        FAIR      34  28  80 SE6       30.38R
BEMIDJI        FAIR      27  24  87 CALM      30.39R
6HR MIN TEMP:  24; 6HR MAX TEMP:  32;

PARK RAPIDS    FAIR      30  24  78 CALM      30.38S
6HR MIN TEMP:  27; 6HR MAX TEMP:  36;

ELBOW LAKE     FAIR      33  29  85 E7        30.40R
6HR MIN TEMP:  32; 6HR MAX TEMP:  34;

WADENA         FAIR      27  27 100 CALM      30.40R FOG
DETROIT LAKES  FAIR      32  32 100 CALM      30.39S
MOORHEAD       FAIR      34  30  86 SE8       30.39R
FERGUS FALLS   FAIR      34  28  80 SE6       30.39R
MORRIS MN      FAIR      34  30  86 SE6       30.39S
STAPLES        FAIR      27  27 100 CALM      30.41R
$$
  *****  WEATHER ELSEWHERE ACROSS MINNESOTA  *****

CITY           SKY/WX    TMP DP  RH WIND       PRES   REMARKS
DULUTH         FAIR      30  22  72 NW3       30.40R
6HR MIN TEMP:  28; 6HR MAX TEMP:  40;

INTRNTL FALLS  FAIR      27  25  92 CALM      30.38R
6HR MIN TEMP:  25; 6HR MAX TEMP:  32;

ELY            FAIR      27  21  80 CALM      30.39S
CLOQUET        FAIR      30  21  69 CALM      30.41R
WHEATON        FAIR      32  30  93 SE8       30.41R FOG     WCI  25
BRAINERD       FAIR      27  22  81 CALM      30.42R
6HR MIN TEMP:  24; 6HR MAX TEMP:  38;

HIBBING        FAIR      24  21  88 CALM      30.39R
6HR MIN TEMP:  22; 6HR MAX TEMP:  31;

ALEXANDRIA     FAIR      34  27  75 SE3       30.40R
6HR MIN TEMP:  32; 6HR MAX TEMP:  38;

SAINT CLOUD    FAIR      28  25  88 CALM      30.43R
6HR MIN TEMP:  27; 6HR MAX TEMP:  31;

MINNEAPOLIS    MOCLDY    38  28  67 CALM      30.44R
6HR MIN TEMP:  36; 6HR MAX TEMP:  42;

$$

  *****  WEATHER ACROSS SOUTH DAKOTA  *****

CITY           SKY/WX    TMP DP  RH WIND       PRES   REMARKS
SIOUX FALLS    CLOUDY    38  29  70 CALM      30.35R
6HR MIN TEMP:  37; 6HR MAX TEMP:  41;

BROOKINGS      CLOUDY    37  32  82 N3        30.36S
WATERTOWN      MOCLDY    36  32  85 S5        30.35S
6HR MIN TEMP:  35; 6HR MAX TEMP:  38;

HURON          CLOUDY    38  35  89 CALM      30.34S
6HR MIN TEMP:  38; 6HR MAX TEMP:  41; 6HR PCP: TRACE;

SISSETON         N/A     34  33  96 SE6       30.36R
ABERDEEN       CLOUDY    38  35  89 SE6       30.36R
6HR MIN TEMP:  37; 6HR MAX TEMP:  42;

MITCHELL       CLOUDY    37  33  85 E3        30.34S
PIERRE         FAIR      39  39 100 SE7       30.29S FOG
6HR MIN TEMP:  38; 6HR MAX TEMP:  42; 6HR PCP:  0.01;

MOBRIDGE       CLOUDY    42  38  85 SE7       30.27F
RAPID CITY     CLOUDY    38  37  97 SE10      30.21R FOG
6HR MIN TEMP:  36; 6HR MAX TEMP:  39;

$$

  *****  SOME WEATHER IN NEARBY STATES *****

CITY           SKY/WX    TMP DP  RH WIND       PRES   REMARKS
GLASGOW MT     FAIR      38  35  89 E12       30.04S
6HR MIN TEMP:  38; 6HR MAX TEMP:  48;

GREAT FALLS MT FAIR      39  27  62 S12       29.99F
6HR MIN TEMP:  33; 6HR MAX TEMP:  44;

CHEYENNE WY    LGT SNOW  30  30 100 CALM      30.13S FOG
6HR MIN TEMP:  30; 6HR MAX TEMP:  32; 6HR PCP:  0.04;

SCOTTSBLUFF NE LGT SNOW  34  32  92 E7        30.20S
6HR MIN TEMP:  33; 6HR MAX TEMP:  37; 6HR PCP:  0.10;

OMAHA NE       CLOUDY    50  26  39 VRB5      30.28F
6HR MIN TEMP:  48; 6HR MAX TEMP:  53;

DES MOINES IA  CLOUDY    46  31  55 E9        30.36S
6HR MIN TEMP:  46; 6HR MAX TEMP:  52;

DAVENPORT IA   FAIR      43  25  49 E6        30.43R
6HR MIN TEMP:  43; 6HR MAX TEMP:  47;

CHICAGO IL     CLOUDY    43  22  43 E3        30.43S
6HR MIN TEMP:  39; 6HR MAX TEMP:  43;

EAU CLAIRE WI  FAIR      32  26  78 CALM      30.43R
6HR MIN TEMP:  28; 6HR MAX TEMP:  32;

LA CROSSE WI   CLOUDY    37  30  75 SE3       30.43R
6HR MIN TEMP:  35; 6HR MAX TEMP:  39;

$$

  *****  SOME NATIONAL WEATHER *****

CITY           SKY/WX    TMP DP  RH WIND       PRES   REMARKS
LA GUARDIA NY  FAIR      43  26  51 NW15      30.41R
6HR MIN TEMP:  41; 6HR MAX TEMP:  43;

RALEIGH NC     FAIR      44  38  79 NE6       30.45R
6HR MIN TEMP:  37; 6HR MAX TEMP:  44;

ATLANTA GA     FAIR      47  37  68 E8        30.33R
6HR MIN TEMP:  46; 6HR MAX TEMP:  53;

NEW ORLEANS LA FAIR      59  53  80 E3        30.12R
6HR MIN TEMP:  54; 6HR MAX TEMP:  60;

OKLAHOMA CITY  TSTM      47  46  97 E18       30.04F FOG
6HR MIN TEMP:  48; 6HR MAX TEMP:  57; 6HR PCP:  0.27;

ALBUQUERQUE NM FAIR      35  30  82 E7        30.09F
6HR MIN TEMP:  35; 6HR MAX TEMP:  46;

SALT LAKE CITY FAIR      46  37  71 SE7       30.16R
6HR MIN TEMP:  45; 6HR M



USA.gov is the U.S. government's official web portal to all federal, state and local government web resources and services.